Latest Coastal Weather Observations for Maatsuyker Island

IDT60701

Issued at 2:35 pm EST Saturday 2 August 2014 (issued every 10 minutes, with the page automatically refreshed every 10 minutes)

About coastal observations | Map of coastal stations | Coastal observations for TAS | Marine services | Other Formats
Station Details ID: 094041 Name: MAATSUYKER ISLAND LIGHTHOUSE Lat: -43.66 Lon: 146.27 Height: 146.5 m
Data from the previous 72 hours. | See also: Recent months at Maatsuyker Island
Date/Time
EST
Temp

°C
Wind Pressure Rain
since 9am
mm
Weather Cloud Vis
km
Sea
Height
m
Swell
Dir
 
Speed
knots
Gust
knots
hPa Trend Height
m
Period
s
Dir
02/02:30pm 8.7 WNW 19 24 1023.9 - 0.4 - - - - - - -
02/02:00pm 8.7 W 16 23 1023.6 - 0.4 - - - - - - -
02/01:30pm 9.4 WNW 20 24 1023.3 - 0.4 - - - - - - -
02/01:00pm 8.6 W 18 23 1023.3 - 0.4 - - - - - - -
02/12:30pm 8.9 W 17 25 1023.2 - 0.4 - - - - - - -
02/12:00pm 8.1 WSW 17 25 1023.4 - 0.4 - - - - - - -
02/11:30am 8.5 W 18 25 1023.0 - 0.2 - - - - - - -
02/11:00am 7.3 WNW 21 26 1022.7 - 0.2 - - - - - - -
02/10:46am 7.7 WNW 19 29 1022.6 - 0.2 - - - - - - -
02/10:30am 7.4 WNW 21 24 1022.3 - 0.2 - - - - - - -
02/10:00am 7.8 WNW 19 24 1022.0 - 0.2 - - - - - - -
02/09:30am 6.6 WNW 22 27 1021.5 - 0.2 - - - - - - -
02/09:00am 6.8 WNW 24 32 1021.1 R 3.8 Distant precip. Partly cloudy 14 2 4.5 15 SW
02/08:30am 6.9 WNW 27 35 1020.5 - 3.8 - - - - - - -
02/08:00am 7.4 WNW 28 35 1020.4 - 3.8 - - - - - - -
02/07:30am 6.0 WNW 30 41 1020.1 - 3.8 - - - - - - -
02/07:19am 7.4 WNW 30 40 1019.6 - 3.4 - - - - - - -
02/07:13am 7.1 WNW 26 34 1020.0 - 3.4 - - - - - - -
02/07:00am 6.8 NW 24 30 1019.6 - 3.4 - - - - - - -
02/06:52am 6.5 NW 27 41 1019.1 - 3.4 - - - - - - -
02/06:41am 6.9 WNW 39 43 1018.4 - 3.4 - - - - - - -
02/06:39am 7.5 WNW 28 40 1018.9 - 3.4 - - - - - - -
02/06:30am 7.0 WNW 30 37 1019.1 - 3.4 - - - - - - -
02/06:08am 6.9 W 35 47 1019.3 - 3.2 - - - - - - -
02/06:07am 7.3 W 20 47 1018.7 - 3.2 - - - - - - -
02/06:00am 7.2 W 16 34 1019.2 R 3.2 Distant precip. Partly cloudy 8 1 4.5 14 SW
02/05:33am 6.8 W 21 33 1018.4 - 3.2 - - - - - - -
02/05:30am 6.3 W 20 27 1018.4 - 3.2 - - - - - - -
02/05:24am 5.9 W 21 31 1018.6 - 3.2 - - - - - - -
02/05:15am 5.7 WSW 24 40 1018.9 - 3.2 - - - - - - -
02/05:11am 6.4 WNW 22 40 1018.9 - 3.0 - - - - - - -
02/05:06am 6.7 WNW 18 29 1018.7 - 3.0 - - - - - - -
02/05:00am 6.2 WNW 17 22 1018.3 - 3.0 - - - - - - -
02/04:48am 5.7 WSW 14 23 1018.6 - 2.8 - - - - - - -
02/04:30am 5.8 WNW 21 34 1018.5 - 2.6 - - - - - - -
02/04:26am 5.9 NW 25 35 1018.6 - 2.6 - - - - - - -
02/04:00am 6.4 WNW 24 32 1018.0 - 2.6 - - - - - - -
02/03:30am 5.7 NW 31 36 1017.7 - 2.6 - - - - - - -
02/03:00am 6.5 W 24 39 1018.0 - 2.6 - - - - - - -
02/02:58am 6.5 W 25 37 1017.8 - 2.6 - - - - - - -
02/02:55am 6.8 W 21 34 1018.2 - 2.4 - - - - - - -
02/02:51am 6.7 WSW 24 34 1018.2 - 2.4 - - - - - - -
02/02:48am 6.7 SW 22 33 1018.1 - 2.4 - - - - - - -
02/02:30am 6.6 W 23 34 1018.0 - 2.4 - - - - - - -
02/02:13am 6.5 W 21 32 1017.7 - 2.4 - - - - - - -
02/02:00am 6.7 W 20 27 1017.9 - 2.4 - - - - - - -
02/01:30am 5.9 W 16 21 1017.6 - 2.4 - - - - - - -
02/01:00am 6.4 WSW 18 31 1017.2 - 2.4 - - - - - - -
02/12:49am 5.9 W 17 25 1017.0 - 2.4 - - - - - - -
02/12:44am 5.9 SW 20 25 1016.9 - 2.4 - - - - - - -
02/12:30am 5.5 W 20 32 1016.8 - 2.4 - - - - - - -
02/12:00am 4.9 WSW 24 34 1016.8 - 2.4 - - - - - - -
 
Date/Time
EST
Temp

°C
Wind Pressure Rain
since 9am
mm
Weather Cloud Vis
km
Sea
Height
m
Swell
Dir
 
Speed
knots
Gust
knots
hPa Trend Height
m
Period
s
Dir
01/11:40pm 6.6 WSW 17 27 1016.1 - 2.2 - - - - - - -
01/11:35pm 6.6 WSW 20 27 1016.2 - 2.2 - - - - - - -
01/11:30pm 6.5 W 17 22 1016.1 - 2.2 - - - - - - -
01/11:00pm 5.6 SW 12 19 1015.5 - 2.2 - - - - - - -
01/10:59pm 5.6 SW 11 17 1015.5 - 2.2 - - - - - - -
01/10:30pm 5.7 SSW 23 33 1015.2 - 2.2 - - - - - - -
01/10:27pm 5.5 SSW 27 37 1015.1 - 2.2 - - - - - - -
01/10:11pm 5.4 SSW 30 39 1014.7 - 2.2 - - - - - - -
01/10:08pm 5.2 WSW 27 41 1015.1 - 2.2 - - - - - - -
01/10:00pm 6.4 SSW 36 41 1014.2 - 2.2 - - - - - - -
01/09:58pm 7.0 SSW 22 32 1014.6 - 2.2 - - - - - - -
01/09:30pm 6.7 SSW 25 33 1013.8 - 2.2 - - - - - - -
01/09:00pm 6.4 S 27 32 1013.4 - 2.2 - - - - - - -
01/08:30pm 6.5 SSW 29 34 1012.8 - 2.2 - - - - - - -
01/08:00pm 6.9 SSW 27 33 1011.8 - 2.2 - - - - - - -
01/07:30pm 6.7 S 30 36 1010.9 - 2.2 - - - - - - -
01/07:00pm 6.4 S 34 40 1010.4 - 2.2 - - - - - - -
01/06:51pm 6.1 S 37 41 1009.9 - 2.2 - - - - - - -
01/06:49pm 5.8 S 25 36 1010.1 - 2.2 - - - - - - -
01/06:46pm 5.2 S 24 30 1010.0 - 2.0 - - - - - - -
01/06:38pm 4.3 SSE 26 48 1009.6 - 2.0 - - - - - - -
01/06:35pm 3.9 SSE 38 48 1009.1 - 2.0 - - - - - - -
01/06:30pm 4.5 SSE 41 48 1008.5 - 2.0 - - - - - - -
01/06:29pm 4.9 SSE 41 48 1008.6 - 2.0 - - - - - - -
01/06:27pm 5.0 SSE 26 40 1009.3 - 2.0 - - - - - - -
01/06:05pm 4.3 SSE 27 49 1008.9 - 1.8 - - - - - - -
01/06:00pm 5.2 S 44 49 1008.1 - 1.8 - - - - - - -
01/05:58pm 5.2 S 44 49 1007.9 - 1.8 - - - - - - -
01/05:43pm 5.9 S 30 42 1007.1 - 1.8 - - - - - - -
01/05:30pm 5.9 S 34 39 1007.5 - 1.8 - - - - - - -
01/05:00pm 5.4 S 34 42 1005.6 - 1.8 - - - - - - -
01/04:48pm 5.2 SSE 36 40 1005.2 - 1.8 - - - - - - -
01/04:33pm 6.5 SSW 29 39 1005.6 - 1.8 - - - - - - -
01/04:30pm 6.4 SSW 30 39 1005.6 - 1.8 - - - - - - -
01/04:07pm 6.4 S 28 38 1004.7 - 1.6 - - - - - - -
01/04:00pm 6.2 S 32 38 1004.5 - 1.6 - - - - - - -
01/03:49pm 6.1 S 33 43 1004.1 - 1.6 - - - - - - -
01/03:33pm 6.2 S 33 37 1003.6 - 1.6 - - - - - - -
01/03:32pm 5.9 SSE 20 35 1003.6 - 1.6 - - - - - - -
01/03:30pm 5.3 SSE 15 27 1003.7 - 1.6 - - - - - - -
01/03:23pm 4.9 SSE 26 48 1003.6 - 1.6 - - - - - - -
01/03:19pm 5.0 SSE 31 48 1003.2 - 1.4 - - - - - - -
01/03:16pm 6.0 S 44 48 1002.0 - 1.4 - - - - - - -
01/03:14pm 6.4 SSE 32 47 1002.5 - 1.4 - - - - - - -
01/03:08pm 5.9 SSE 30 49 1002.9 - 1.4 - - - - - - -
01/03:00pm 6.0 S 40 49 1002.2 R 1.4 Distant precip. Mostly cloudy 12 5 5.0 12 SW
01/02:45pm 7.0 S 43 48 1001.6 - 1.4 - - - - - - -
01/02:42pm 7.4 S 32 42 1001.9 - 1.4 - - - - - - -
01/02:30pm 7.6 S 33 40 1001.5 - 1.4 - - - - - - -
01/02:00pm 7.7 S 32 37 1000.7 - 1.4 - - - - - - -
01/01:30pm 7.6 S 35 40 1000.0 - 1.4 - - - - - - -
01/01:00pm 7.5 S 36 42 998.7 - 1.4 - - - - - - -
01/12:45pm 7.4 S 37 47 998.1 - 1.4 - - - - - - -
01/12:30pm 7.5 S 39 46 997.8 - 1.4 - - - - - - -
01/12:15pm 7.5 S 41 51 996.7 - 1.4 - - - - - - -
01/12:00pm 7.2 S 43 49 996.4 - 1.4 - - - - - - -
01/11:30am 7.1 S 43 52 995.5 - 1.4 - - - - - - -
01/11:00am 6.3 S 43 54 994.3 - 1.4 - - - - - - -
01/10:54am 5.5 S 43 54 994.2 - 1.4 - - - - - - -
01/10:52am 5.2 S 47 54 993.9 - 1.4 - - - - - - -
01/10:44am 5.7 SSW 32 43 994.8 - 1.2 - - - - - - -
01/10:40am 5.4 SSW 30 56 994.8 - 1.2 - - - - - - -
01/10:36am 5.4 SSE 37 60 993.9 - 1.2 - - - - - - -
01/10:33am 5.0 SSE 49 60 993.4 - 1.2 - - - - - - -
01/10:30am 5.5 SSE 53 60 992.0 - 1.2 - - - - - - -
01/10:07am 6.2 S 40 51 992.6 - 1.2 - - - - - - -
01/10:00am 5.7 S 40 46 992.8 - 1.2 - - - - - - -
01/09:55am 5.7 S 38 46 992.6 - 1.2 - - - - - - -
01/09:53am 4.9 S 23 35 992.8 - 1.2 - - - - - - -
01/09:51am 5.1 S 19 33 993.2 - 1.2 - - - - - - -
01/09:46am 5.0 SE 28 35 992.5 - 0.8 - - - - - - -
01/09:45am 5.0 E 16 35 992.5 - 0.8 - - - - - - -
01/09:44am 4.9 NE 10 35 992.5 - 0.6 - - - - - - -
01/09:39am 5.4 ESE 20 33 992.2 - 0.4 - - - - - - -
01/09:37am 6.0 ENE 15 30 992.0 - 0.2 - - - - - - -
01/09:30am 6.1 ESE 16 24 992.2 - 0.0 - - - - - - -
01/09:20am 6.1 NE 10 34 991.7 - 0.0 - - - - - - -
01/09:19am 6.1 SE 23 34 991.6 - 0.0 - - - - - - -
01/09:12am 5.7 SSE 26 36 991.4 - 0.0 - - - - - - -
01/09:02am 5.7 SSE 38 48 990.6 - 0.0 - - - - - - -
01/09:00am 5.5 S 28 48 990.5 R 14.0 Distant precip. Cloudy 14 3 4.5 14 SW
01/08:30am 5.5 SSE 39 47 989.1 - 14.0 - - - - - - -
01/08:00am 5.8 S 36 42 988.6 - 14.0 - - - - - - -
01/07:30am 5.8 S 33 41 987.0 - 14.0 - - - - - - -
01/07:22am 5.8 S 28 39 987.2 - 14.0 - - - - - - -
01/07:13am 5.7 S 28 32 987.1 - 13.8 - - - - - - -
01/07:08am 6.3 SW 22 31 987.3 - 13.6 - - - - - - -
01/07:07am 6.3 W 18 32 987.3 - 13.6 - - - - - - -
01/07:03am 6.5 WNW 19 40 987.0 - 13.6 - - - - - - -
01/07:00am 6.8 NW 33 40 986.2 - 13.4 - - - - - - -
01/06:45am 6.9 WNW 32 42 985.3 - 13.4 - - - - - - -
01/06:37am 7.0 WNW 32 47 985.8 - 13.2 - - - - - - -
01/06:30am 7.7 NW 44 51 984.8 - 13.2 - - - - - - -
01/06:00am 7.5 NW 40 55 983.7 R 13.2 Distant precip. Partly cloudy 6 7 5.0 14 SW
01/05:34am 7.5 NW 49 59 982.4 - 13.2 - - - - - - -
01/05:30am 7.6 NW 50 59 982.8 - 13.2 - - - - - - -
01/05:01am 7.0 NW 55 65 981.1 - 13.2 - - - - - - -
01/05:00am 7.2 NW 56 65 981.5 - 13.2 - - - - - - -
01/04:32am 7.7 NW 61 71 980.0 - 13.2 - - - - - - -
01/04:30am 7.3 NW 62 71 979.8 - 13.2 - - - - - - -
01/04:26am 7.2 NW 61 71 978.8 - 13.2 - - - - - - -
01/04:04am 6.6 NW 58 68 980.8 - 13.2 - - - - - - -
01/04:00am 6.7 NW 59 68 980.9 - 13.2 - - - - - - -
01/03:52am 7.7 NW 53 64 980.4 - 13.2 - - - - - - -
01/03:30am 7.6 NW 55 63 980.2 - 13.2 - - - - - - -
01/03:01am 7.7 NW 55 65 980.2 - 13.2 - - - - - - -
01/03:00am 7.6 NW 55 61 981.0 - 13.2 - - - - - - -
01/02:36am 7.4 NW 54 69 980.2 - 13.2 - - - - - - -
01/02:30am 7.5 NW 54 62 980.6 - 13.2 - - - - - - -
01/02:01am 7.0 NW 58 68 980.7 - 13.2 - - - - - - -
01/02:00am 7.0 NW 59 68 980.6 - 13.2 - - - - - - -
01/01:30am 7.5 NW 58 68 979.4 - 13.2 - - - - - - -
01/01:00am 6.8 NW 60 73 978.6 - 13.2 - - - - - - -
01/12:55am 6.2 NW 63 73 979.2 - 13.2 - - - - - - -
01/12:49am 6.2 NW 65 70 978.2 - 13.2 - - - - - - -
01/12:47am 7.0 NW 54 66 979.4 - 13.2 - - - - - - -
01/12:37am 6.5 NW 52 67 979.2 - 13.2 - - - - - - -
01/12:30am 5.5 NW 63 78 979.0 - 13.2 - - - - - - -
01/12:22am 3.9 NW 70 80 979.0 - 13.0 - - - - - - -
01/12:20am 4.7 NW 71 80 978.0 - 12.8 - - - - - - -
01/12:19am 6.1 NW 59 80 978.4 - 12.8 - - - - - - -
01/12:18am 7.7 NW 58 68 979.0 - 12.8 - - - - - - -
01/12:08am 6.6 NW 53 68 979.7 - 12.8 - - - - - - -
01/12:02am 6.2 NW 63 73 978.5 - 12.8 - - - - - - -
01/12:00am 6.4 NW 65 73 978.3 - 12.8 - - - - - - -
 
Date/Time
EST
Temp

°C
Wind Pressure Rain
since 9am
mm
Weather Cloud Vis
km
Sea
Height
m
Swell
Dir
 
Speed
knots
Gust
knots
hPa Trend Height
m
Period
s
Dir
31/11:37pm 7.9 NW 57 67 977.9 - 12.8 - - - - - - -
31/11:30pm 7.7 NW 55 64 977.5 - 12.8 - - - - - - -
31/11:18pm 7.4 NW 53 71 978.0 - 12.8 - - - - - - -
31/11:12pm 7.0 NW 56 73 978.0 - 12.8 - - - - - - -
31/11:02pm 5.9 NW 67 77 977.6 - 12.8 - - - - - - -
31/11:00pm 6.8 NW 69 77 976.9 - 12.8 - - - - - - -
31/10:59pm 7.1 NW 55 77 976.8 - 12.8 - - - - - - -
31/10:30pm 7.2 NW 52 65 978.1 - 12.8 - - - - - - -
31/10:26pm 7.5 NW 53 65 978.5 - 12.8 - - - - - - -
31/10:06pm 6.9 NW 53 63 975.8 - 12.8 - - - - - - -
31/10:00pm 7.1 NW 53 60 977.3 - 12.8 - - - - - - -
31/09:54pm 6.6 NW 52 72 976.9 - 12.8 - - - - - - -
31/09:48pm 5.6 NW 62 73 977.4 - 12.8 - - - - - - -
31/09:45pm 5.7 NW 67 73 975.8 - 12.8 - - - - - - -
31/09:40pm 7.3 NW 54 64 976.8 - 12.8 - - - - - - -
31/09:30pm 7.3 NW 57 65 976.4 - 12.8 - - - - - - -
31/09:00pm 7.7 NW 64 75 975.1 - 12.6 - - - - - - -
31/08:56pm 7.4 NW 65 75 974.9 - 12.6 - - - - - - -
31/08:51pm 8.3 NW 65 74 973.6 - 12.6 - - - - - - -
31/08:30pm 8.2 NW 49 63 974.3 - 12.6 - - - - - - -
31/08:24pm 8.2 NW 47 57 974.8 - 12.6 - - - - - - -
31/08:17pm 8.0 NNW 45 63 974.5 - 12.6 - - - - - - -
31/08:00pm 7.9 NW 58 70 973.4 - 12.6 - - - - - - -
31/07:41pm 7.9 NW 56 70 972.2 - 12.6 - - - - - - -
31/07:33pm 8.1 NW 56 67 974.3 - 12.6 - - - - - - -
31/07:30pm 7.8 NW 60 67 973.1 - 12.6 - - - - - - -
31/07:26pm 7.5 NW 62 67 973.2 - 12.6 - - - - - - -
31/07:00pm 6.9 NNW 51 68 974.0 - 12.6 - - - - - - -
31/06:31pm 7.5 NW 50 61 973.8 - 12.0 - - - - - - -
31/06:30pm 7.7 NW 50 57 973.8 - 12.0 - - - - - - -
31/06:26pm 7.8 NW 48 55 974.7 - 12.0 - - - - - - -
31/06:21pm 7.7 NNW 37 49 975.1 - 12.0 - - - - - - -
31/06:19pm 7.0 NNW 23 42 975.7 - 12.0 - - - - - - -
31/06:14pm 6.4 NNW 22 40 976.0 - 11.8 - - - - - - -
31/06:07pm 6.4 NNW 36 46 975.7 - 11.8 - - - - - - -
31/06:00pm 6.5 NNW 39 53 975.6 - 11.8 - - - - - - -
31/05:55pm 6.1 NNW 37 62 975.3 - 11.8 - - - - - - -
31/05:38pm 7.9 NW 51 61 974.0 - 11.6 - - - - - - -
31/05:37pm 8.0 NNW 36 59 974.6 - 11.6 - - - - - - -
31/05:30pm 7.4 NNW 31 42 975.4 - 11.4 - - - - - - -
31/05:00pm 5.8 NNW 29 43 976.2 - 11.4 - - - - - - -
31/04:30pm 5.9 NNW 28 39 976.8 - 10.6 - - - - - - -
31/04:00pm 6.5 N 19 29 976.4 - 9.8 - - - - - - -
31/03:30pm 5.8 N 17 27 977.7 - 9.8 - - - - - - -
31/03:29pm 5.7 N 16 27 977.7 - 9.8 - - - - - - -
31/03:24pm 5.7 N 15 22 977.4 - 9.8 - - - - - - -
31/03:00pm 4.7 N 6 11 978.6 F 9.8 Distant precip. Cloudy 25 <0.5 4.5 14 SW
31/02:30pm 4.5 N 10 16 979.6 - 9.8 - - - - - - -
31/02:00pm 4.4 N 12 17 979.8 - 9.6 - - - - - - -
31/01:30pm 4.3 N 12 17 980.2 - 9.4 - - - - - - -
31/01:00pm 4.4 N 11 16 981.4 - 8.6 - - - - - - -
31/12:30pm 4.3 N 11 18 981.7 - 7.8 - - - - - - -
31/12:00pm 4.8 N 13 17 982.9 - 6.8 - - - - - - -
31/11:30am 4.9 N 11 15 982.8 - 6.4 - - - - - - -
31/11:00am 5.6 NNW 16 21 984.3 - 5.6 - - - - - - -
31/10:30am 5.9 NW 16 21 985.1 - 4.0 - - - - - - -
31/10:00am 6.2 NW 25 32 985.5 - 2.6 - - - - - - -
31/09:34am 6.8 NW 27 39 984.9 - 1.2 - - - - - - -
31/09:30am 7.2 NW 27 34 985.5 - 1.0 - - - - - - -
31/09:21am 7.2 NW 24 34 985.4 - 0.6 - - - - - - -
31/09:00am 7.3 WNW 22 29 985.5 F 23.6 Showers Cloudy 4 2 4.5 15 SW
31/08:38am 7.5 NW 24 36 984.3 - 23.0 - - - - - - -
31/08:30am 7.1 NNW 19 24 985.1 - 22.8 - - - - - - -
31/08:21am 7.2 NNW 21 44 984.9 - 22.6 - - - - - - -
31/08:17am 7.8 NW 33 44 984.2 - 22.4 - - - - - - -
31/08:00am 7.9 NW 34 38 985.1 - 22.4 - - - - - - -
31/07:30am 6.9 NW 31 41 986.0 - 21.8 - - - - - - -
31/07:25am 6.6 NW 35 41 985.7 - 20.8 - - - - - - -
31/07:15am 7.3 NNW 21 31 986.2 - 18.8 - - - - - - -
31/07:00am 7.4 NNW 25 33 986.0 - 18.2 - - - - - - -
31/06:30am 7.3 NNW 21 26 985.2 - 18.2 - - - - - - -
31/06:00am 7.2 NNW 18 31 986.4 F 17.6 Showers Cloudy 0 2 4.5 14 SW
31/05:30am 7.4 NNW 22 28 986.5 - 17.0 - - - - - - -
31/05:00am 7.2 NNW 23 31 986.4 - 17.0 - - - - - - -
31/04:35am 7.3 NNW 28 38 985.9 - 16.8 - - - - - - -
31/04:30am 7.6 NNW 30 36 986.0 - 16.8 - - - - - - -
31/04:06am 7.3 NNW 27 44 985.8 - 16.8 - - - - - - -
31/04:02am 6.9 NW 39 49 985.8 - 16.8 - - - - - - -
31/04:00am 6.9 NW 41 49 985.8 - 16.8 - - - - - - -
31/03:38am 7.7 NW 44 55 985.8 - 16.0 - - - - - - -
31/03:30am 8.0 NW 43 49 986.3 - 15.8 - - - - - - -
31/03:00am 7.0 NW 36 43 987.4 - 15.6 - - - - - - -
31/02:30am 7.8 NW 34 40 988.3 - 14.2 - - - - - - -
31/02:00am 7.2 WNW 34 39 988.3 - 14.0 - - - - - - -
31/01:30am 7.1 WNW 30 36 987.4 - 13.2 - - - - - - -
31/01:00am 7.7 WNW 33 40 987.8 - 12.2 - - - - - - -
31/12:48am 8.3 WNW 33 43 987.2 - 12.0 - - - - - - -
31/12:36am 8.5 WNW 34 56 986.7 - 11.6 - - - - - - -
31/12:34am 9.0 NW 50 60 985.9 - 11.6 - - - - - - -
31/12:30am 9.3 NW 53 60 985.0 - 11.4 - - - - - - -
31/12:05am 9.7 NW 52 62 984.4 - 11.2 - - - - - - -
31/12:00am 9.8 NW 53 61 984.0 - 11.2 - - - - - - -
 
Date/Time
EST
Temp

°C
Wind Pressure Rain
since 9am
mm
Weather Cloud Vis
km
Sea
Height
m
Swell
Dir
 
Speed
knots
Gust
knots
hPa Trend Height
m
Period
s
Dir
30/11:30pm 10.0 NW 53 60 983.7 - 10.8 - - - - - - -
30/11:04pm 9.2 NW 49 59 983.9 - 10.8 - - - - - - -
30/11:00pm 8.9 NW 51 59 983.6 - 10.6 - - - - - - -
30/10:42pm 8.5 NW 58 68 983.2 - 9.4 - - - - - - -
30/10:39pm 9.4 NW 58 67 983.6 - 9.0 - - - - - - -
30/10:30pm 11.4 NNW 59 72 981.6 - 9.0 - - - - - - -
30/10:27pm 11.1 NNW 58 72 981.5 - 9.0 - - - - - - -
30/10:00pm 11.7 NNW 51 63 983.5 - 8.6 - - - - - - -
30/09:30pm 11.9 NNW 57 70 982.6 - 7.8 - - - - - - -
30/09:22pm 12.1 NNW 51 70 981.9 - 7.6 - - - - - - -
30/09:00pm 12.2 NNW 47 59 983.9 - 7.6 - - - - - - -
30/08:30pm 12.2 NNW 50 63 983.8 - 7.6 - - - - - - -
30/08:00pm 12.0 NNW 51 64 983.6 - 7.6 - - - - - - -
30/07:30pm 11.0 NNW 48 59 984.8 - 7.4 - - - - - - -
30/07:00pm 11.7 NNW 51 62 985.2 - 7.2 - - - - - - -
30/06:50pm 12.0 NNW 55 65 984.7 - 7.2 - - - - - - -
30/06:49pm 11.9 NNW 56 65 984.5 - 7.2 - - - - - - -
30/06:30pm 11.7 NNW 45 57 985.5 - 7.0 - - - - - - -
30/06:00pm 11.9 NNW 45 65 986.1 - 7.0 - - - - - - -
30/05:30pm 10.8 NNW 44 59 986.9 - 7.0 - - - - - - -
30/05:25pm 10.3 NNW 43 53 987.7 - 6.8 - - - - - - -
30/05:24pm 10.2 NNW 45 53 987.2 - 6.8 - - - - - - -
30/05:01pm 10.2 NNW 33 44 988.2 - 6.0 - - - - - - -
30/05:00pm 10.1 NNW 32 39 988.4 - 6.0 - - - - - - -
30/04:43pm 9.6 NNW 26 36 989.3 - 6.0 - - - - - - -
30/04:30pm 8.8 NNW 24 30 989.7 - 6.0 - - - - - - -
30/04:00pm 8.4 NNW 23 27 990.3 - 5.2 - - - - - - -
30/03:30pm 8.4 NW 27 32 990.7 - 4.8 - - - - - - -
30/03:00pm 8.5 NW 24 35 991.1 R 4.6 Showers Cloudy 4 3 5.0 14 SW

Other Formats:

Comma delimited format used in spreadsheet applications
http://www.bom.gov.au/fwo/IDT60701/IDT60701.94962.axf

JavaScript Object Notation format (JSON) in row-major order
http://www.bom.gov.au/fwo/IDT60701/IDT60701.94962.json